Probability
18 15 15 14 9 6 5 4 4 3 3 3 3 3 3 3 3 3 3 3 3 3 3 3 3 3 3 3 3 3 3 3 3 3 3 3 3 3 3 4 4 4 3
22 16 16 15 11 7 5 4 4 3 3 3 3 3 3 3 3 3 3 3 3 3 3 3 3 3 3 3 3 3 3 3 3 3 3 3 3 4 3 4 4 4 3
25 18 15 17 14 9 5 4 4 4 4 4 3 3 4 3 3 3 3 3 3 3 3 3 3 3 3 3 3 3 3 3 3 3 3 3 4 4 4 4 4 4 3
25 21 19 20 18 12 6 5 5 5 5 5 4 4 4 4 3 3 3 3 3 4 4 4 4 4 3 3 3 3 3 3 3 3 3 3 5 6 5 4 4 3 3
27 27 29 28 23 15 9 6 5 6 6 5 5 5 5 5 4 3 3 3 4 5 5 5 5 5 4 3 3 3 3 3 3 3 3 4 6 8 7 4 3 4 4
34 36 37 35 28 19 12 8 7 7 7 7 7 8 9 8 7 5 4 4 4 5 6 6 6 6 4 3 3 3 3 3 3 3 3 4 9 13 11 7 5 5 6
42 43 43 40 34 24 16 11 9 8 8 9 10 12 14 15 13 9 7 6 6 6 7 7 6 6 5 4 3 3 3 3 3 3 3 6 14 20 16 11 10 8 7
46 48 48 46 40 30 21 15 13 11 9 8 11 15 18 17 16 13 11 10 10 10 8 7 7 6 6 4 3 3 3 3 3 3 3 11 26 31 23 17 15 13 10
49 51 49 46 43 35 26 22 21 18 13 10 12 16 18 16 14 13 14 15 15 13 10 8 8 9 8 7 5 4 3 3 3 3 4 17 39 44 32 23 21 17 14
53 54 50 45 43 37 32 31 30 25 20 16 16 18 17 15 12 12 15 18 19 16 12 9 9 10 10 9 6 4 3 4 3 3 5 20 44 51 40 31 26 22 18
60 59 53 48 44 37 35 38 36 29 23 21 20 20 20 17 14 13 17 23 24 19 15 13 12 10 9 8 7 5 5 5 4 3 8 25 45 49 42 35 30 24 20
63 61 56 52 47 40 39 43 40 32 27 26 25 25 25 23 20 18 21 28 29 23 19 19 17 13 10 10 9 8 7 5 4 3 13 31 44 45 41 36 31 24 21
64 63 59 56 52 48 47 48 43 37 35 34 34 35 34 31 29 28 29 32 31 26 24 25 22 16 12 11 10 9 8 6 4 5 18 34 40 39 38 34 29 25 23
67 65 62 60 58 58 57 53 46 41 40 43 44 45 44 40 37 35 34 34 31 29 28 27 23 17 12 10 8 7 7 6 5 9 21 32 34 33 32 31 27 25 25
70 68 64 62 63 65 64 56 46 41 42 47 51 51 49 46 41 38 38 36 31 28 28 25 21 16 12 9 8 7 7 7 8 13 21 27 29 29 28 26 25 24 24
72 70 67 64 65 68 66 57 47 42 43 49 53 52 48 45 42 40 40 37 32 28 26 21 17 15 13 11 11 11 10 9 10 15 19 21 24 26 26 26 27 27 27
72 72 68 65 65 67 65 58 50 45 45 50 53 51 46 42 40 39 39 38 36 32 26 20 16 14 14 14 14 13 14 14 14 15 17 17 19 22 26 29 33 35 35
70 71 69 64 64 65 64 59 52 48 49 51 51 49 47 44 40 37 37 38 37 33 26 19 16 15 15 15 13 12 14 17 16 14 14 15 16 19 24 30 36 36 36
67 69 68 64 62 62 61 59 53 51 51 50 48 47 47 46 41 37 38 36 33 28 22 18 16 16 15 13 10 8 11 15 16 13 12 14 17 18 19 24 29 29 27
64 63 63 61 58 56 57 56 54 52 50 46 44 45 44 42 39 36 35 32 27 21 18 16 15 15 13 10 7 5 7 11 13 12 11 13 15 14 13 16 20 19 17
57 57 56 55 53 52 52 52 52 52 48 43 41 41 39 36 34 32 30 28 24 18 16 14 13 13 12 10 7 5 5 7 8 9 10 10 10 9 9 10 13 13 12
51 51 52 51 49 47 47 48 49 49 45 41 39 38 36 32 29 27 26 26 24 20 15 12 11 10 10 10 10 7 6 5 5 7 9 8 6 5 6 7 7 8 9
46 48 50 50 47 44 43 43 43 43 41 38 36 35 33 29 26 24 23 23 23 20 14 10 9 9 8 8 9 9 8 7 7 8 8 6 4 3 3 4 4 6 9
38 41 45 46 45 42 41 39 38 38 36 35 33 32 29 26 24 22 20 19 18 16 12 9 9 8 7 7 8 8 8 8 8 9 8 5 3 4 4 4 4 5 7
31 34 40 43 42 40 39 38 37 36 35 34 33 31 29 27 25 22 19 17 15 13 10 8 7 8 8 8 8 8 8 8 9 9 7 5 4 5 5 4 3 4 5
28 32 38 41 41 39 38 37 38 38 36 35 34 31 29 28 26 23 19 17 15 13 10 7 6 6 7 8 8 8 7 7 9 9 7 5 5 5 5 4 3 3 3
Wind_Speed
16 17 17 14 12 11 10 9 9 9 9 8 8 8 7 7 7 7 7 7 7 6 6 5 5 4 4 4 5 5 5 5 5 5 6 7 7 7 6 5 3 6 10
19 17 17 14 12 11 10 9 9 9 9 9 8 8 7 7 6 6 6 5 5 5 4 4 4 3 3 3 3 3 3 3 3 2 3 4 6 6 5 4 4 6 9
19 17 16 14 12 11 10 9 9 9 9 9 8 8 7 7 6 6 5 4 4 3 3 3 2 2 1 2 1 1 1 0 1 2 4 4 6 7 5 5 7 7 7
18 16 15 15 12 11 10 9 9 9 9 9 8 7 7 6 6 6 5 4 3 3 2 2 1 0 0 1 1 1 2 2 4 5 5 5 5 10 7 6 6 7 6
17 16 16 15 13 11 10 9 9 9 8 8 8 7 6 6 6 5 5 4 4 3 2 2 2 1 1 2 2 3 3 5 6 8 7 3 4 12 11 8 7 6 6
16 17 16 16 13 12 10 9 9 8 8 8 7 7 6 6 5 5 5 5 4 4 3 3 3 2 3 3 4 4 5 6 8 8 7 3 5 13 12 10 8 7 6
16 16 16 15 13 12 10 9 8 8 7 7 7 6 6 6 6 5 5 5 5 5 4 4 4 4 4 4 5 6 7 8 8 8 6 2 6 13 12 11 9 8 8
15 16 14 15 14 12 11 9 8 8 7 7 7 6 6 6 6 6 6 6 6 5 5 5 5 5 5 6 7 7 8 10 9 8 5 2 9 12 12 11 9 9 9
14 15 13 12 12 12 11 10 9 8 7 7 6 6 6 6 7 7 7 6 6 6 6 6 6 7 7 7 8 9 10 11 10 7 8 2 10 12 12 11 10 9 9
12 12 11 11 11 10 10 11 10 9 9 8 7 7 8 8 8 9 9 8 8 8 8 8 8 8 9 9 10 10 11 10 9 9 5 3 11 11 11 10 10 10 10
10 9 9 10 9 9 9 11 11 11 10 9 8 9 8 6 7 8 10 10 10 10 10 10 10 10 10 11 12 13 11 6 8 6 4 5 10 11 11 10 10 10 11
9 8 7 8 8 7 6 8 7 7 7 7 5 6 6 5 5 5 6 10 10 11 11 11 11 10 9 6 8 12 6 8 7 4 3 8 8 9 9 10 10 10 12
8 6 6 6 6 5 3 5 3 3 4 5 5 5 4 4 3 2 2 4 5 7 6 6 7 5 5 4 4 4 6 6 4 4 3 8 8 8 8 9 10 11 12
7 6 5 5 4 3 3 2 2 2 2 2 3 4 3 2 2 1 1 2 2 2 2 2 2 3 4 5 5 5 5 4 3 2 3 8 9 8 8 9 10 10 11
5 5 5 4 4 3 2 1 2 2 2 3 3 3 2 2 2 1 1 1 2 1 2 2 2 3 4 4 5 5 4 5 5 3 2 7 8 8 8 10 10 10 11
5 4 4 4 4 3 2 1 1 1 1 1 2 2 2 2 1 1 1 1 2 1 1 2 3 3 3 3 4 5 6 6 4 2 2 3 6 7 9 9 9 9 11
5 4 3 4 4 3 2 2 1 1 1 1 1 1 2 2 1 1 2 2 2 2 2 2 3 2 3 3 4 5 5 5 4 3 3 2 3 6 9 9 9 8 9
4 4 3 2 4 3 2 1 1 1 1 1 1 1 1 1 1 1 2 2 1 1 1 2 2 2 3 3 3 4 4 4 5 5 4 3 2 3 5 8 8 9 9
5 4 4 2 2 3 3 2 1 1 1 1 1 1 1 0 1 1 1 1 2 1 1 2 1 2 3 3 4 4 4 4 4 5 4 4 3 3 3 6 9 10 11
5 4 3 2 1 1 2 1 1 1 1 1 1 1 0 1 1 1 1 1 2 1 1 2 3 3 3 3 5 5 4 4 3 3 4 4 3 4 4 4 4 7 10
5 4 3 2 2 1 1 1 1 1 0 1 1 1 0 1 1 1 1 1 2 1 1 2 3 4 3 2 3 4 4 4 3 3 3 2 3 3 3 4 3 3 4
5 4 3 2 2 1 1 1 1 1 1 1 1 1 0 0 1 1 0 1 1 1 1 2 2 2 3 2 1 2 3 2 2 3 2 3 2 2 3 4 3 4 4
4 4 3 3 2 1 0 0 0 0 0 1 1 1 0 1 1 1 1 1 1 2 1 2 2 2 3 3 1 1 2 2 2 2 2 2 2 2 2 2 3 3 5
3 4 3 3 2 1 1 0 1 1 1 0 0 0 0 1 0 0 0 1 1 2 2 3 2 2 3 3 2 2 2 2 2 2 2 2 2 3 3 3 3 3 4
3 3 4 3 2 2 1 1 1 1 1 1 0 0 1 1 1 0 0 0 1 2 2 3 3 3 3 3 2 2 3 3 3 3 4 3 2 2 2 3 3 3 3
3 3 4 4 3 2 2 1 1 1 1 1 1 1 1 1 1 1 1 1 1 2 2 2 3 4 3 3 3 3 3 3 2 3 3 3 3 3 3 2 2 3 3
Wind_Direction
121 127 129 127 126 128 130 133 139 140 140 141 140 135 129 122 115 110 105 102 101 102 101 96 91 85 77 64 53 50 51 56 64 72 83 89 93 95 94 90 102 111 115
122 127 129 127 128 130 131 135 141 144 144 144 146 148 144 138 131 124 121 120 117 114 109 102 94 87 79 69 60 54 56 62 73 92 121 131 129 120 113 89 65 102 126
121 127 130 129 130 132 133 134 139 144 148 149 150 152 151 148 145 141 140 141 139 135 129 121 110 94 74 57 49 38 37 16 267 243 227 203 157 145 131 111 103 113 131
125 133 132 133 133 135 135 135 138 145 151 154 156 156 156 155 155 156 157 160 163 161 163 165 162 136 39 351 318 308 296 279 270 267 248 224 163 149 150 142 133 135 142
130 130 129 137 136 137 137 137 139 144 150 156 159 162 163 164 166 168 171 177 184 191 199 206 224 237 255 274 279 282 281 276 275 271 264 232 146 155 161 160 156 155 157
130 128 135 139 139 139 140 141 141 145 152 156 160 163 167 171 174 181 186 192 201 209 217 226 235 246 255 266 272 275 276 276 278 267 261 220 157 162 161 163 167 170 169
128 130 138 142 142 143 144 145 147 149 153 157 164 168 171 175 183 194 202 206 213 221 224 229 236 243 252 261 266 268 269 272 267 273 278 241 158 160 162 169 176 180 181
129 130 137 145 147 149 151 152 153 154 158 164 173 176 181 187 195 202 208 214 220 225 226 231 241 245 249 252 257 261 266 272 270 272 268 230 152 160 169 172 181 188 193
129 132 143 151 155 157 160 161 159 160 167 175 180 184 192 200 206 210 215 219 221 224 230 234 240 245 249 251 253 256 260 264 274 275 273 211 159 165 174 176 184 194 203
131 136 147 154 158 165 168 172 169 171 181 187 191 198 206 213 219 220 218 218 224 230 235 240 246 249 250 251 251 251 254 262 262 264 261 200 166 172 179 183 189 200 209
135 139 150 155 160 171 172 169 175 182 188 193 201 210 214 220 221 217 221 212 218 227 234 238 243 248 253 250 246 246 249 246 251 250 245 198 175 180 185 190 195 206 214
145 150 157 158 161 172 172 156 176 185 187 199 203 208 216 228 233 229 205 211 217 225 233 237 242 247 247 252 243 238 240 242 250 248 223 184 182 186 192 200 206 213 218
148 145 146 147 151 159 153 153 170 184 178 197 206 213 222 230 238 231 203 205 220 228 233 237 238 240 243 244 255 233 237 247 245 239 195 174 189 192 201 211 216 222 224
143 141 133 135 136 141 130 147 162 177 170 189 193 211 219 220 238 238 226 219 222 228 223 243 244 247 254 262 262 254 250 252 263 256 181 182 192 198 212 220 223 226 226
139 139 136 132 123 122 124 161 161 183 181 183 170 188 214 221 232 244 240 236 255 249 228 239 254 258 260 269 272 276 277 268 260 269 184 193 197 203 216 228 230 231 230
138 136 132 135 132 136 146 167 177 202 188 195 156 179 204 233 223 231 249 239 248 257 270 253 254 256 256 259 268 273 275 278 271 266 240 206 204 212 221 225 229 235 237
137 135 139 146 146 152 165 187 192 208 183 191 160 187 203 232 237 239 249 240 240 237 240 252 269 273 261 258 259 266 267 270 272 266 257 235 212 221 227 224 223 230 237
138 136 135 162 146 148 157 182 207 211 168 164 147 181 187 247 258 244 249 258 262 259 248 249 245 264 269 267 268 269 264 259 261 258 251 242 230 234 228 227 223 226 233
134 131 134 136 145 165 171 182 197 157 145 140 117 95 59 311 288 273 261 280 278 266 265 278 269 260 266 265 264 256 254 253 247 255 253 245 228 221 225 221 225 229 233
126 122 128 128 119 154 178 174 193 199 173 140 106 87 78 304 301 286 271 282 289 283 268 275 276 258 255 257 274 276 264 254 238 236 242 244 238 236 235 228 219 230 233
128 131 137 152 133 138 175 196 226 202 162 142 136 119 146 274 293 274 292 289 281 273 278 293 287 285 272 261 281 288 274 252 235 233 227 232 238 240 236 229 224 228 223
138 141 148 148 140 181 176 185 213 204 212 124 61 87 69 330 290 270 265 258 280 278 276 280 284 290 295 297 278 294 291 268 278 261 223 229 237 251 253 249 228 225 229
145 150 156 157 152 173 132 145 55 150 254 86 76 90 51 346 343 328 314 307 288 277 272 274 277 278 289 295 263 244 278 287 308 258 251 246 229 244 260 256 248 236 234
147 151 143 132 129 177 157 191 217 205 251 253 186 124 276 238 241 275 310 312 303 309 303 296 315 288 282 291 289 250 251 263 272 293 279 258 257 258 260 273 280 260 243
148 155 142 129 142 164 170 204 257 292 318 9 345 145 249 247 237 218 232 313 283 288 297 303 310 294 284 279 287 294 282 268 247 255 279 283 271 260 256 261 267 270 255
131 141 136 147 156 171 181 183 232 270 283 289 290 258 256 254 241 241 272 275 282 291 296 297 293 285 281 282 282 278 277 280 274 267 272 279 281 279 267 257 255 259 257